DW7061 Weather Reports


Display with metric or nautical units.
time (UTC)temp
F
wind
direction
speed
MPH
gust
MPH
rain 1hr
in
rain 24hr
in
rain mn
in
humidity
%
barometer
mb
20260905004517 66 0.0 0.0 0.00 0.00 0.00 83 1010.6
20260905003516 65 0.0 0.0 0.00 0.00 0.00 83 1010.4
20260905002536 65 0.0 0.0 0.00 0.00 0.00 83 1010.4
20260905001517 66 0.0 0.0 0.00 0.00 0.00 83 1010.2
20260905000516 66 0.0 0.0 0.00 0.00 0.00 82 1010.2
20260904235516 66 0.0 0.0 0.00 0.00 0.00 81 1010.1
20260904234517 67 0.0 0.0 0.00 0.00 0.00 82 1009.9
20260904233516 67 0.0 0.0 0.00 0.00 0.00 81 1010.1
20260904232516 67 0.0 0.0 0.00 0.00 0.00 81 1009.9
20260904231516 68 0.0 0.0 0.00 0.00 0.00 81 1010.0
20260904230516 69 0.0 0.0 0.00 0.00 0.00 81 1009.9
20260904225637 69 0.0 0.0 0.00 0.00 0.00 80 1009.8
20260904224516 70 0.0 0.0 0.00 0.00 0.00 80 1009.9
20260904223516 70 0.0 0.0 0.00 0.00 0.00 79 1009.7
20260904222516 71 0.0 0.0 0.00 0.00 0.00 78 1009.8
20260904221537 71 0.0 0.0 0.00 0.00 0.00 76 1009.6
20260904220516 72 0.0 0.0 0.00 0.00 0.00 74 1009.7
20260904215516 73 0.0 0.0 0.00 0.00 0.00 71 1009.8
20260904214516 74 0.0 1.0 0.00 0.00 0.00 69 1009.8
20260904213557 74 0.0 2.0 0.00 0.00 0.00 68 1009.9
20260904212516 75 0.0 2.0 0.00 0.00 0.00 69 1009.9
20260904211516 75 0.0 1.0 0.00 0.00 0.00 69 1010.0
20260904210516 76 0.0 2.0 0.00 0.00 0.00 69 1010.1
20260904205517 77 0.0 0.0 0.00 0.00 0.00 66 1010.2
20260904204557 78 0.0 0.0 0.00 0.00 0.00 65 1010.2
20260904203516 79 0.0 1.0 0.00 0.00 0.00 60 1010.2
20260904202516 79 0.0 1.0 0.00 0.00 0.00 61 1010.1
20260904201517 80 0.0 1.0 0.00 0.00 0.00 60 1010.1
20260904200516 80 0.0 1.0 0.00 0.00 0.00 59 1010.2
20260904195536 79 0.0 2.0 0.00 0.00 0.00 58 1010.3
20260904194516 79 0.0 2.0 0.00 0.00 0.00 61 1010.4
20260904193516 79 0.0 1.0 0.00 0.00 0.00 61 1010.3
20260904192516 79 248 1.0 5.0 0.00 0.00 0.00 58 1010.2
20260904191517 79 248 1.0 6.0 0.00 0.00 0.00 57 1010.2
20260904190516 79 113 1.0 3.0 0.00 0.00 0.00 60 1010.2
20260904185517 79 225 1.0 6.0 0.00 0.00 0.00 60 1010.2
20260904184516 78 0.0 1.0 0.00 0.00 0.00 65 1010.3
20260904183536 78 0.0 2.0 0.00 0.00 0.00 62 1010.5
20260904182516 77 0.0 1.0 0.00 0.00 0.00 65 1010.7
20260904181517 76 0.0 1.0 0.00 0.00 0.00 69 1010.6
20260904180537 78 0.0 1.0 0.00 0.00 0.00 65 1010.6
20260904175516 78 0.0 0.0 0.00 0.00 0.00 69 1010.6
20260904174516 77 0.0 4.0 0.00 0.00 0.00 65 1010.4
20260904173516 77 0.0 0.0 0.00 0.00 0.00 67 1010.4
20260904172516 77 0.0 1.0 0.00 0.00 0.00 69 1010.5
20260904171516 76 0.0 1.0 0.00 0.00 0.00 71 1010.6
20260904170517 76 0.0 3.0 0.00 0.00 0.00 68 1010.7
20260904165516 76 0.0 1.0 0.00 0.00 0.00 72 1010.7
20260904164516 76 0.0 0.0 0.00 0.00 0.00 74 1010.8
20260904163517 77 0.0 3.0 0.00 0.00 0.00 72 1010.8
20260904162516 76 0.0 1.0 0.00 0.00 0.00 70 1010.9
20260904161536 76 0.0 2.0 0.00 0.00 0.00 73 1011.2
20260904160517 75 0.0 0.0 0.00 0.00 0.00 73 1011.3
20260904155516 75 0.0 2.0 0.00 0.00 0.00 74 1011.2
20260904154516 75 0.0 3.0 0.00 0.00 0.00 76 1011.4
20260904153516 75 0.0 1.0 0.00 0.00 0.00 78 1011.5
20260904152516 74 0.0 1.0 0.00 0.00 0.00 80 1011.5
20260904151516 73 0.0 1.0 0.00 0.00 0.00 81 1011.6
20260904150516 72 0.0 1.0 0.00 0.00 0.00 81 1011.5
20260904145516 72 0.0 4.0 0.00 0.00 0.00 82 1011.7
20260904144537 72 0.0 1.0 0.00 0.00 0.00 82 1011.6
20260904143516 72 0.0 2.0 0.00 0.00 0.00 84 1011.6
20260904142517 71 0.0 1.0 0.00 0.00 0.00 85 1011.6
20260904141516 70 0.0 1.0 0.00 0.00 0.00 86 1011.6
20260904140516 69 0.0 2.0 0.00 0.00 0.00 86 1011.5
20260904135516 69 0.0 1.0 0.00 0.00 0.00 88 1011.5
20260904134516 68 0.0 1.0 0.00 0.00 0.00 88 1011.5
20260904133516 68 0.0 2.0 0.00 0.00 0.00 89 1011.5
20260904132516 67 0.0 0.0 0.00 0.00 0.00 90 1011.5
20260904131517 67 0.0 4.0 0.00 0.00 0.00 92 1011.5
20260904130536 66 0.0 2.0 0.00 0.00 0.00 91 1011.4
20260904125516 66 0.0 2.0 0.00 0.00 0.00 92 1011.5
20260904124516 66 0.0 2.0 0.00 0.00 0.00 92 1011.4
20260904123516 65 0.0 0.0 0.00 0.00 0.00 93 1011.4
20260904122516 65 0.0 0.0 0.00 0.00 0.00 94 1011.4
20260904121517 64 0.0 0.0 0.00 0.00 0.00 95 1011.1
20260904120516 64 0.0 0.0 0.00 0.00 0.00 95 1011.0
20260904115516 64 0.0 0.0 0.00 0.00 0.00 95 1011.1
20260904114516 63 0.0 0.0 0.00 0.00 0.00 95 1011.0
20260904113516 63 0.0 0.0 0.00 0.00 0.00 95 1010.8
20260904112517 63 0.0 0.0 0.00 0.00 0.00 95 1010.8
20260904111538 62 0.0 0.0 0.00 0.00 0.00 95 1010.7
20260904110517 63 0.0 0.0 0.00 0.00 0.00 95 1010.7
20260904105517 63 0.0 0.0 0.00 0.00 0.00 94 1010.8
20260904104557 63 0.0 0.0 0.00 0.00 0.00 94 1010.8
20260904103517 63 0.0 0.0 0.00 0.00 0.00 93 1010.8
20260904102517 64 0.0 0.0 0.00 0.00 0.00 93 1010.8
20260904101516 64 0.0 0.0 0.00 0.00 0.00 92 1010.8
20260904100559 64 0.0 0.0 0.00 0.00 0.00 92 1010.7
20260904095517 64 0.0 0.0 0.00 0.00 0.00 93 1010.7
20260904094517 64 0.0 0.0 0.00 0.00 0.00 93 1010.6
20260904093517 64 0.0 0.0 0.00 0.00 0.00 93 1010.5
20260904092517 64 0.0 0.0 0.00 0.00 0.00 93 1010.5
20260904091517 64 0.0 0.0 0.00 0.00 0.00 92 1010.5
20260904090517 64 0.0 0.0 0.00 0.00 0.00 92 1010.7
20260904085517 64 0.0 0.0 0.00 0.00 0.00 92 1010.6
20260904084516 65 0.0 0.0 0.00 0.00 0.00 92 1010.6
20260904083518 65 0.0 0.0 0.00 0.00 0.00 92 1010.5
20260904082538 65 0.0 0.0 0.00 0.00 0.00 93 1010.5
20260904081517 64 0.0 0.0 0.00 0.00 0.00 94 1010.4
20260904080537 64 0.0 0.0 0.00 0.00 0.00 95 1010.3
20260904075517 64 0.0 0.0 0.00 0.00 0.00 96 1010.5
20260904074517 65 0.0 0.0 0.00 0.00 0.00 96 1010.8
20260904073517 64 0.0 0.0 0.00 0.00 0.00 96 1011.0
20260904073017 64 0.0 0.0 0.00 0.00 0.00 96 1011.1
20260904072017 64 0.0 0.0 0.00 0.00 0.00 96 1011.2
20260904071017 64 0.0 0.0 0.00 0.00 0.00 97 1011.3
20260904070017 64 0.0 0.0 0.00 0.00 0.00 97 1011.4
20260904065017 64 0.0 0.0 0.00 0.00 0.00 97 1011.1
20260904064017 64 0.0 0.0 0.00 0.00 0.00 97 1011.1
20260904063017 64 0.0 0.0 0.00 0.00 0.00 97 1011.3
20260904062017 64 0.0 0.0 0.00 0.00 0.00 97 1011.3
20260904061016 64 0.0 0.0 0.00 0.00 0.00 97 1011.3
20260904060016 64 0.0 0.0 0.00 0.00 0.00 97 1011.5
20260904055017 64 0.0 0.0 0.00 0.00 0.00 97 1011.7
20260904054037 65 0.0 0.0 0.00 0.00 0.00 97 1011.7
20260904053017 64 0.0 0.0 0.00 0.00 0.00 97 1012.1
20260904052037 64 0.0 0.0 0.00 0.00 0.00 97 1012.1
20260904051017 65 0.0 0.0 0.00 0.00 0.00 97 1012.2
20260904050017 65 0.0 0.0 0.00 0.00 0.00 97 1012.1
20260904045017 65 0.0 0.0 0.00 0.00 0.00 96 1012.2
20260904044017 65 0.0 0.0 0.00 0.00 0.00 96 1012.1
20260904043017 66 0.0 0.0 0.00 0.00 0.00 96 1012.2
20260904042039 66 0.0 0.0 0.00 0.00 0.00 96 1012.2
20260904041016 66 0.0 0.0 0.00 0.00 0.00 96 1012.3
20260904040019 67 0.0 0.0 0.00 0.00 0.00 96 1012.3
20260904035037 67 0.0 0.0 0.00 0.00 0.00 97 1012.3
20260904034017 67 0.0 0.0 0.00 0.00 0.00 97 1012.6
20260904033018 67 0.0 0.0 0.00 0.00 0.00 96 1012.7
20260904032017 67 0.0 0.0 0.00 0.00 0.00 97 1012.5
20260904031017 68 0.0 0.0 0.00 0.00 0.00 96 1012.7
20260904030017 68 0.0 0.0 0.00 0.00 0.00 96 1012.6
20260904025017 68 0.0 0.0 0.00 0.00 0.00 96 1012.6
20260904024017 68 0.0 0.0 0.00 0.00 0.00 96 1012.7
20260904023018 68 0.0 0.0 0.00 0.00 0.00 96 1012.7
20260904022018 68 0.0 0.0 0.00 0.00 0.00 96 1012.8
20260904021017 69 0.0 0.0 0.00 0.00 0.00 96 1012.7
20260904020017 69 0.0 0.0 0.00 0.00 0.00 96 1012.8
20260904015038 69 0.0 0.0 0.00 0.00 0.00 96 1012.9
20260904014018 69 0.0 0.0 0.00 0.00 0.00 96 1013.0
20260904013017 69 0.0 0.0 0.00 0.00 0.00 96 1013.0
20260904012018 69 0.0 0.0 0.00 0.00 0.00 96 1013.1
20260904011020 69 0.0 0.0 0.00 0.00 0.00 96 1013.0
20260904010017 69 0.0 0.0 0.00 0.00 0.00 96 1013.0
20260904005017 69 0.0 0.0 0.00 0.00 0.00 96 1013.0